Weather History for KPHF - February, 2013

Change the Weather History Date:

Friday, February 15, 2013

  Actual Average Record
Temperature  
Mean Temperature 48 °F -  
Max Temperature 61 °F 52 °F 74 °F (1949)
Min Temperature 36 °F 33 °F 18 °F (2015)
Degree Days  
Heating Degree Days 16    
Moisture  
Dew Point 33 °F    
Average Humidity 58    
Maximum Humidity 82    
Minimum Humidity 31    
Precipitation  
Precipitation 0.00 in - - ()
Sea Level Pressure  
Sea Level Pressure 30.01 in    
Wind  
Wind Speed 5 mph (SSW)    
Max Wind Speed 12 mph    
Max Gust Speed -    
Visibility 8 miles    
Events      
Averages and records for this station are not official NWS values.
T = Trace of Precipitation, MM = Missing Value Source: NWS Daily Summary

Daily Weather History Graph

Daily Weather History Graph

Search for Another Location

Airport or City:

Trip Planner

Search our weather history database for the weather conditions in past years. The results will help you decide how hot, cold, wet, or windy it might be!

Date:

Astronomy

Feb. 15, 2013 Rise Set
Actual Time 6:54 AM EST 5:46 PM EST
Civil Twilight 6:27 AM EST 6:12 PM EST
Nautical Twilight 5:57 AM EST 6:43 PM EST
Astronomical Twilight 5:27 AM EST 7:13 PM EST
Moon 9:38 AM EST (2/15) 11:35 PM EST (2/15)
Length of Visible Light 11h 44m
Length of Day
10h 51m
Waxing Crescent, 30% of the Moon is Illuminated
Feb 15
Waxing Crescent
Feb 17
First Quarter
Feb 25
Full
Mar 4
Last Quarter
Mar 11
New

Hourly Weather History & Observations

Time (EST) Temp. Windchill Dew Point Humidity Pressure Visibility Wind Dir Wind Speed Gust Speed Precip Events Conditions
12:54 AM 39.0 °F 36.8 °F 33.1 °F 79% 30.06 in 6.0 mi SSW 3.5 mph - N/A   Haze
1:54 AM 39.0 °F 35.7 °F 33.1 °F 79% 30.06 in 6.0 mi WSW 4.6 mph - N/A   Haze
2:54 AM 39.9 °F 35.8 °F 33.1 °F 77% 30.06 in 6.0 mi West 5.8 mph - N/A   Haze
3:54 AM 36.0 °F 33.3 °F 30.9 °F 82% 30.04 in 5.0 mi SW 3.5 mph - N/A   Haze
4:54 AM 37.0 °F 33.3 °F 30.9 °F 79% 30.05 in 6.0 mi SW 4.6 mph - N/A   Haze
5:54 AM 37.0 °F 33.3 °F 30.9 °F 79% 30.06 in 5.0 mi South 4.6 mph - N/A   Haze
6:54 AM 36.0 °F 33.3 °F 30.9 °F 82% 30.06 in 3.0 mi SSW 3.5 mph - N/A   Haze
7:54 AM 39.9 °F 37.8 °F 34.0 °F 79% 30.08 in 3.0 mi SSW 3.5 mph - N/A   Haze
8:54 AM 46.0 °F 43.1 °F 36.0 °F 68% 30.08 in 7.0 mi WSW 5.8 mph - N/A   Clear
9:54 AM 48.9 °F - 35.1 °F 59% 30.08 in 10.0 mi SSW 4.6 mph - N/A   Clear
10:54 AM 53.1 °F - 35.1 °F 50% 30.07 in 10.0 mi WSW 4.6 mph - N/A   Clear
11:54 AM 57.2 °F - 32.0 °F 38% 30.05 in 10.0 mi West 5.8 mph - N/A   Clear
12:54 PM 59.0 °F - 34.0 °F 39% 30.02 in 10.0 mi Variable 5.8 mph - N/A   Clear
1:54 PM 60.1 °F - 30.0 °F 32% 29.99 in 10.0 mi SSW 8.1 mph - N/A   Clear
2:54 PM 61.0 °F - 30.9 °F 32% 29.97 in 10.0 mi SSW 9.2 mph - N/A   Clear
3:54 PM 61.0 °F - 30.0 °F 31% 29.95 in 10.0 mi South 9.2 mph - N/A   Clear
4:54 PM 59.0 °F - 32.0 °F 36% 29.94 in 10.0 mi SE 11.5 mph - N/A   Clear
5:54 PM 54.0 °F - 36.0 °F 51% 29.94 in 10.0 mi SE 9.2 mph - N/A   Clear
6:54 PM 52.0 °F - 34.0 °F 50% 29.94 in 10.0 mi SSE 11.5 mph - N/A   Clear
7:54 PM 50.0 °F - 33.1 °F 52% 29.94 in 10.0 mi SSE 6.9 mph - N/A   Clear
8:54 PM 48.9 °F - 32.0 °F 52% 29.96 in 10.0 mi South 8.1 mph - N/A   Clear
9:54 PM 48.0 °F - 33.1 °F 56% 29.96 in 10.0 mi South 6.9 mph - N/A   Clear
10:54 PM 46.9 °F - 34.0 °F 61% 29.95 in 10.0 mi SSW 6.9 mph - N/A   Clear
11:54 PM 48.0 °F - 34.0 °F 58% 29.95 in 10.0 mi Calm Calm - N/A   Scattered Clouds